QPF
0.05 0.04 0.03 0.03 0.03 0.03 0.05 0.07 0.06 0.02 0.00 0.00 0.00 0.00 0.00 0.00 0.00 0.01 0.01 0.01 0.01 0.01 0.00 0.00 0.00 0.00 0.00 0.00 0.00 0.00 0.00 0.00 0.00 0.00 0.00 0.00 0.00 0.00 0.00 0.00 0.01 0.01 0.03 0.04
0.01 0.01 0.01 0.02 0.01 0.01 0.01 0.01 0.02 0.01 0.00 0.00 0.00 0.00 0.00 0.00 0.00 0.00 0.01 0.01 0.01 0.01 0.00 0.00 0.00 0.00 0.00 0.00 0.00 0.00 0.00 0.00 0.00 0.01 0.01 0.01 0.00 0.00 0.00 0.00 0.01 0.01 0.01 0.01
0.01 0.01 0.01 0.03 0.03 0.02 0.01 0.00 0.00 0.00 0.00 0.00 0.00 0.00 0.00 0.00 0.00 0.00 0.00 0.00 0.00 0.00 0.00 0.00 0.00 0.00 0.00 0.00 0.00 0.01 0.01 0.01 0.01 0.01 0.01 0.01 0.01 0.00 0.00 0.01 0.01 0.01 0.01 0.00
0.01 0.02 0.04 0.06 0.05 0.03 0.01 0.00 0.00 0.00 0.00 0.00 0.00 0.00 0.00 0.00 0.00 0.00 0.00 0.01 0.00 0.00 0.00 0.00 0.00 0.00 0.00 0.00 0.01 0.01 0.02 0.02 0.02 0.01 0.02 0.02 0.02 0.03 0.02 0.02 0.02 0.02 0.01 0.01
0.05 0.05 0.05 0.07 0.04 0.03 0.02 0.01 0.00 0.00 0.00 0.00 0.00 0.00 0.00 0.00 0.00 0.01 0.01 0.01 0.00 0.00 0.00 0.00 0.00 0.00 0.00 0.00 0.00 0.00 0.01 0.02 0.02 0.02 0.03 0.04 0.05 0.08 0.08 0.06 0.06 0.05 0.04 0.03
0.15 0.15 0.13 0.09 0.04 0.03 0.03 0.05 0.01 0.00 0.00 0.00 0.00 0.00 0.00 0.00 0.00 0.00 0.00 0.00 0.00 0.00 0.00 0.00 0.00 0.00 0.00 0.00 0.00 0.00 0.00 0.01 0.01 0.02 0.02 0.03 0.05 0.08 0.10 0.10 0.10 0.10 0.07 0.05
0.24 0.30 0.28 0.16 0.05 0.05 0.07 0.08 0.02 0.00 0.00 0.00 0.00 0.00 0.00 0.00 0.00 0.00 0.00 0.00 0.00 0.00 0.00 0.00 0.00 0.00 0.00 0.00 0.00 0.00 0.00 0.00 0.01 0.01 0.02 0.02 0.03 0.04 0.06 0.09 0.09 0.09 0.07 0.05
0.37 0.49 0.54 0.27 0.11 0.10 0.08 0.04 0.01 0.00 0.00 0.00 0.00 0.00 0.00 0.00 0.00 0.00 0.00 0.00 0.00 0.00 0.00 0.00 0.00 0.00 0.00 0.00 0.00 0.00 0.00 0.00 0.00 0.00 0.01 0.02 0.03 0.04 0.06 0.08 0.09 0.09 0.08 0.07
0.29 0.40 0.40 0.23 0.13 0.06 0.04 0.03 0.00 0.00 0.00 0.00 0.00 0.00 0.00 0.00 0.00 0.00 0.00 0.00 0.00 0.00 0.00 0.00 0.00 0.00 0.00 0.00 0.00 0.00 0.00 0.00 0.00 0.00 0.00 0.01 0.01 0.02 0.05 0.07 0.08 0.09 0.11 0.10
0.05 0.08 0.11 0.09 0.06 0.03 0.01 0.01 0.00 0.00 0.00 0.00 0.00 0.00 0.00 0.00 0.00 0.00 0.00 0.00 0.00 0.00 0.00 0.00 0.00 0.00 0.00 0.00 0.00 0.00 0.00 0.00 0.00 0.00 0.00 0.00 0.01 0.01 0.02 0.04 0.05 0.06 0.09 0.10
0.01 0.01 0.02 0.03 0.02 0.01 0.01 0.00 0.00 0.00 0.00 0.00 0.00 0.00 0.00 0.00 0.00 0.00 0.00 0.00 0.00 0.00 0.00 0.00 0.00 0.00 0.00 0.00 0.00 0.00 0.00 0.00 0.00 0.00 0.00 0.00 0.01 0.01 0.01 0.03 0.06 0.07 0.09 0.10
0.01 0.00 0.00 0.01 0.01 0.01 0.01 0.00 0.00 0.00 0.00 0.00 0.00 0.00 0.00 0.00 0.00 0.00 0.00 0.00 0.00 0.00 0.00 0.00 0.00 0.00 0.00 0.00 0.00 0.00 0.00 0.00 0.00 0.00 0.00 0.00 0.00 0.00 0.01 0.02 0.04 0.05 0.05 0.05
0.00 0.00 0.00 0.00 0.00 0.00 0.00 0.00 0.00 0.00 0.00 0.00 0.00 0.00 0.00 0.00 0.00 0.00 0.00 0.00 0.00 0.00 0.00 0.00 0.00 0.00 0.00 0.00 0.00 0.00 0.00 0.00 0.00 0.00 0.00 0.00 0.00 0.00 0.00 0.01 0.01 0.01 0.02 0.03
0.00 0.00 0.00 0.00 0.00 0.00 0.00 0.00 0.00 0.00 0.00 0.00 0.00 0.00 0.00 0.00 0.00 0.00 0.00 0.00 0.00 0.00 0.00 0.00 0.00 0.00 0.00 0.00 0.00 0.00 0.00 0.00 0.00 0.00 0.00 0.00 0.00 0.00 0.01 0.01 0.02 0.01 0.01 0.02
0.00 0.00 0.00 0.00 0.00 0.00 0.00 0.00 0.00 0.00 0.00 0.00 0.00 0.00 0.00 0.00 0.00 0.00 0.00 0.00 0.00 0.00 0.00 0.00 0.00 0.00 0.00 0.00 0.00 0.00 0.00 0.00 0.00 0.00 0.00 0.00 0.00 0.00 0.01 0.01 0.01 0.01 0.00 0.00
0.00 0.00 0.00 0.00 0.00 0.00 0.00 0.00 0.00 0.00 0.00 0.00 0.00 0.00 0.00 0.00 0.00 0.00 0.00 0.00 0.00 0.00 0.00 0.00 0.00 0.00 0.00 0.00 0.00 0.00 0.00 0.00 0.00 0.00 0.00 0.00 0.01 0.01 0.01 0.01 0.01 0.01 0.00 0.00
0.00 0.00 0.00 0.00 0.00 0.00 0.00 0.00 0.00 0.00 0.00 0.00 0.00 0.00 0.00 0.00 0.00 0.00 0.00 0.00 0.00 0.00 0.00 0.00 0.00 0.00 0.00 0.00 0.00 0.00 0.00 0.00 0.00 0.00 0.00 0.00 0.00 0.00 0.00 0.00 0.00 0.00 0.00 0.00
0.00 0.00 0.00 0.00 0.00 0.00 0.00 0.00 0.00 0.00 0.00 0.00 0.00 0.00 0.00 0.00 0.00 0.00 0.00 0.00 0.00 0.00 0.00 0.00 0.00 0.00 0.00 0.00 0.00 0.00 0.00 0.00 0.00 0.00 0.01 0.00 0.00 0.00 0.00 0.00 0.00 0.00 0.00 0.00
0.00 0.00 0.00 0.00 0.00 0.00 0.00 0.00 0.00 0.00 0.00 0.00 0.00 0.00 0.00 0.00 0.00 0.00 0.00 0.00 0.00 0.00 0.00 0.00 0.00 0.00 0.00 0.00 0.00 0.00 0.00 0.00 0.00 0.00 0.01 0.00 0.00 0.00 0.00 0.00 0.00 0.00 0.00 0.00
0.00 0.00 0.00 0.00 0.00 0.00 0.00 0.00 0.00 0.00 0.00 0.00 0.00 0.00 0.00 0.00 0.00 0.00 0.00 0.00 0.00 0.00 0.00 0.00 0.00 0.00 0.00 0.00 0.00 0.00 0.00 0.00 0.00 0.00 0.01 0.00 0.00 0.00 0.00 0.00 0.00 0.00 0.00 0.00
0.00 0.00 0.00 0.00 0.00 0.00 0.00 0.00 0.00 0.00 0.00 0.00 0.00 0.00 0.00 0.00 0.00 0.00 0.00 0.00 0.00 0.00 0.00 0.00 0.00 0.00 0.00 0.00 0.00 0.00 0.00 0.00 0.00 0.00 0.00 0.00 0.00 0.00 0.01 0.01 0.00 0.00 0.00 0.00
0.00 0.00 0.00 0.00 0.00 0.00 0.00 0.00 0.00 0.00 0.00 0.00 0.00 0.00 0.00 0.00 0.00 0.00 0.00 0.00 0.00 0.00 0.00 0.00 0.00 0.00 0.00 0.00 0.00 0.00 0.00 0.00 0.00 0.00 0.00 0.00 0.00 0.01 0.01 0.01 0.00 0.00 0.00 0.00
0.00 0.00 0.00 0.00 0.00 0.00 0.00 0.00 0.00 0.00 0.00 0.00 0.00 0.00 0.00 0.00 0.00 0.00 0.00 0.00 0.00 0.00 0.00 0.00 0.00 0.00 0.00 0.00 0.00 0.00 0.00 0.00 0.00 0.00 0.00 0.00 0.00 0.01 0.00 0.00 0.00 0.00 0.00 0.00
0.00 0.00 0.00 0.00 0.00 0.00 0.00 0.00 0.00 0.00 0.00 0.00 0.00 0.00 0.00 0.00 0.00 0.00 0.00 0.00 0.00 0.00 0.00 0.00 0.00 0.00 0.00 0.00 0.00 0.00 0.00 0.00 0.00 0.00 0.00 0.00 0.00 0.00 0.00 0.00 0.00 0.00 0.00 0.00
0.00 0.00 0.00 0.00 0.00 0.00 0.00 0.00 0.00 0.00 0.00 0.00 0.00 0.00 0.00 0.00 0.00 0.00 0.00 0.00 0.00 0.00 0.00 0.00 0.00 0.00 0.00 0.00 0.00 0.00 0.00 0.00 0.00 0.00 0.00 0.00 0.00 0.00 0.00 0.00 0.00 0.00 0.00 0.00
0.00 0.00 0.00 0.00 0.00 0.00 0.00 0.00 0.00 0.00 0.00 0.00 0.00 0.00 0.00 0.00 0.00 0.00 0.00 0.00 0.00 0.00 0.00 0.00 0.00 0.00 0.00 0.00 0.00 0.00 0.00 0.00 0.00 0.00 0.00 0.00 0.00 0.00 0.00 0.00 0.00 0.00 0.00 0.00
0.00 0.00 0.00 0.00 0.00 0.00 0.00 0.00 0.00 0.00 0.00 0.00 0.00 0.00 0.00 0.00 0.00 0.00 0.00 0.00 0.00 0.00 0.00 0.00 0.00 0.00 0.00 0.00 0.00 0.00 0.00 0.00 0.00 0.00 0.00 0.00 0.00 0.00 0.00 0.00 0.00 0.00 0.00 0.00
MSLP
1014.01 1013.60 1013.27 1013.03 1012.87 1012.77 1012.66 1012.50 1012.24 1011.83 1011.27 1010.57 1009.76 1008.90 1008.06 1007.29 1006.63 1006.11 1005.74 1005.52 1005.41 1005.39 1005.43 1005.53 1005.68 1005.87 1006.11 1006.42 1006.78 1007.19 1007.64 1008.08 1008.50 1008.87 1009.16 1009.38 1009.53 1009.63 1009.71 1009.82 1009.96 1010.18 1010.47 1010.83
1014.21 1013.87 1013.58 1013.35 1013.17 1013.02 1012.86 1012.64 1012.32 1011.88 1011.31 1010.61 1009.82 1008.99 1008.17 1007.41 1006.74 1006.20 1005.80 1005.52 1005.36 1005.30 1005.31 1005.39 1005.53 1005.72 1005.97 1006.27 1006.63 1007.03 1007.45 1007.87 1008.25 1008.59 1008.86 1009.06 1009.21 1009.31 1009.41 1009.52 1009.68 1009.89 1010.18 1010.53
1014.45 1014.21 1014.00 1013.82 1013.65 1013.48 1013.27 1012.99 1012.62 1012.13 1011.53 1010.82 1010.04 1009.22 1008.42 1007.67 1007.02 1006.47 1006.05 1005.75 1005.57 1005.48 1005.47 1005.54 1005.66 1005.85 1006.08 1006.37 1006.70 1007.06 1007.42 1007.78 1008.12 1008.40 1008.64 1008.82 1008.95 1009.06 1009.17 1009.30 1009.47 1009.70 1009.98 1010.32
1014.86 1014.74 1014.62 1014.50 1014.36 1014.17 1013.92 1013.58 1013.15 1012.60 1011.96 1011.22 1010.43 1009.62 1008.84 1008.10 1007.46 1006.93 1006.51 1006.21 1006.02 1005.93 1005.91 1005.97 1006.08 1006.25 1006.46 1006.70 1006.98 1007.27 1007.57 1007.85 1008.11 1008.33 1008.51 1008.66 1008.78 1008.90 1009.02 1009.16 1009.35 1009.59 1009.87 1010.19
1015.52 1015.51 1015.48 1015.41 1015.28 1015.08 1014.78 1014.38 1013.87 1013.25 1012.55 1011.77 1010.96 1010.15 1009.37 1008.66 1008.04 1007.53 1007.13 1006.85 1006.67 1006.58 1006.56 1006.61 1006.71 1006.85 1007.02 1007.21 1007.42 1007.63 1007.84 1008.04 1008.21 1008.36 1008.49 1008.60 1008.70 1008.81 1008.94 1009.11 1009.31 1009.55 1009.82 1010.12
1016.40 1016.48 1016.52 1016.48 1016.35 1016.11 1015.75 1015.27 1014.68 1013.98 1013.20 1012.38 1011.53 1010.71 1009.94 1009.25 1008.65 1008.17 1007.80 1007.55 1007.39 1007.31 1007.31 1007.35 1007.44 1007.55 1007.67 1007.81 1007.95 1008.08 1008.20 1008.30 1008.39 1008.47 1008.54 1008.62 1008.70 1008.81 1008.94 1009.11 1009.31 1009.55 1009.81 1010.07
1017.42 1017.55 1017.60 1017.56 1017.41 1017.11 1016.68 1016.11 1015.42 1014.64 1013.79 1012.91 1012.03 1011.20 1010.44 1009.77 1009.20 1008.75 1008.42 1008.20 1008.07 1008.01 1008.02 1008.06 1008.14 1008.22 1008.31 1008.40 1008.47 1008.53 1008.57 1008.59 1008.61 1008.63 1008.65 1008.70 1008.76 1008.86 1009.00 1009.17 1009.37 1009.59 1009.82 1010.05
1018.42 1018.54 1018.58 1018.50 1018.29 1017.92 1017.40 1016.74 1015.97 1015.10 1014.19 1013.26 1012.37 1011.52 1010.77 1010.13 1009.60 1009.19 1008.89 1008.70 1008.60 1008.58 1008.60 1008.65 1008.72 1008.79 1008.85 1008.89 1008.92 1008.92 1008.90 1008.87 1008.83 1008.81 1008.80 1008.82 1008.87 1008.97 1009.10 1009.27 1009.46 1009.66 1009.87 1010.05
1019.22 1019.30 1019.28 1019.14 1018.85 1018.40 1017.79 1017.05 1016.20 1015.28 1014.32 1013.37 1012.46 1011.62 1010.89 1010.28 1009.78 1009.42 1009.16 1009.01 1008.94 1008.94 1008.98 1009.05 1009.12 1009.19 1009.23 1009.26 1009.25 1009.22 1009.17 1009.10 1009.04 1008.99 1008.96 1008.97 1009.03 1009.12 1009.26 1009.42 1009.61 1009.79 1009.96 1010.10
1019.71 1019.71 1019.61 1019.39 1019.02 1018.48 1017.80 1017.00 1016.10 1015.14 1014.16 1013.20 1012.30 1011.49 1010.80 1010.22 1009.77 1009.44 1009.23 1009.11 1009.08 1009.10 1009.17 1009.25 1009.34 1009.41 1009.46 1009.48 1009.47 1009.43 1009.36 1009.29 1009.22 1009.16 1009.14 1009.16 1009.22 1009.32 1009.47 1009.63 1009.81 1009.97 1010.12 1010.23
1019.82 1019.74 1019.55 1019.24 1018.79 1018.19 1017.46 1016.62 1015.69 1014.73 1013.76 1012.82 1011.95 1011.18 1010.53 1010.00 1009.59 1009.31 1009.13 1009.05 1009.05 1009.11 1009.20 1009.30 1009.41 1009.50 1009.57 1009.60 1009.60 1009.57 1009.51 1009.45 1009.38 1009.34 1009.33 1009.37 1009.44 1009.56 1009.72 1009.89 1010.06 1010.22 1010.35 1010.44
1019.60 1019.42 1019.16 1018.78 1018.27 1017.62 1016.86 1016.01 1015.09 1014.14 1013.20 1012.31 1011.49 1010.78 1010.17 1009.69 1009.33 1009.09 1008.95 1008.90 1008.93 1009.00 1009.12 1009.25 1009.39 1009.50 1009.60 1009.65 1009.68 1009.67 1009.63 1009.59 1009.55 1009.53 1009.53 1009.59 1009.68 1009.82 1009.99 1010.17 1010.36 1010.52 1010.64 1010.71
1019.14 1018.90 1018.58 1018.14 1017.59 1016.93 1016.16 1015.31 1014.42 1013.51 1012.62 1011.78 1011.02 1010.36 1009.80 1009.37 1009.05 1008.84 1008.73 1008.71 1008.76 1008.86 1009.00 1009.16 1009.32 1009.47 1009.60 1009.69 1009.74 1009.76 1009.75 1009.73 1009.71 1009.71 1009.74 1009.81 1009.92 1010.07 1010.26 1010.46 1010.66 1010.83 1010.96 1011.03
1018.61 1018.32 1017.95 1017.48 1016.91 1016.24 1015.48 1014.66 1013.80 1012.94 1012.09 1011.31 1010.60 1009.98 1009.47 1009.07 1008.78 1008.60 1008.51 1008.51 1008.58 1008.71 1008.87 1009.06 1009.25 1009.43 1009.59 1009.71 1009.80 1009.85 1009.87 1009.87 1009.87 1009.88 1009.92 1010.00 1010.13 1010.29 1010.49 1010.70 1010.91 1011.10 1011.25 1011.33
1018.10 1017.79 1017.40 1016.92 1016.34 1015.68 1014.93 1014.14 1013.31 1012.48 1011.68 1010.93 1010.26 1009.68 1009.20 1008.82 1008.55 1008.38 1008.30 1008.31 1008.40 1008.54 1008.73 1008.94 1009.16 1009.37 1009.56 1009.72 1009.84 1009.92 1009.97 1009.99 1010.00 1010.02 1010.07 1010.15 1010.28 1010.45 1010.65 1010.87 1011.10 1011.30 1011.47 1011.58
1017.70 1017.38 1016.99 1016.50 1015.93 1015.27 1014.54 1013.76 1012.96 1012.15 1011.38 1010.65 1010.00 1009.43 1008.96 1008.59 1008.32 1008.16 1008.08 1008.09 1008.19 1008.34 1008.54 1008.78 1009.03 1009.28 1009.50 1009.70 1009.85 1009.96 1010.03 1010.07 1010.09 1010.12 1010.17 1010.24 1010.36 1010.52 1010.72 1010.95 1011.18 1011.40 1011.59 1011.73
1017.42 1017.10 1016.71 1016.23 1015.66 1015.01 1014.28 1013.51 1012.71 1011.92 1011.15 1010.43 1009.78 1009.21 1008.73 1008.35 1008.07 1007.90 1007.82 1007.83 1007.92 1008.09 1008.31 1008.56 1008.84 1009.12 1009.39 1009.62 1009.81 1009.95 1010.04 1010.10 1010.14 1010.17 1010.21 1010.28 1010.39 1010.53 1010.72 1010.94 1011.17 1011.41 1011.61 1011.78
1017.21 1016.91 1016.52 1016.05 1015.48 1014.82 1014.09 1013.32 1012.51 1011.71 1010.94 1010.21 1009.54 1008.96 1008.46 1008.07 1007.77 1007.58 1007.49 1007.49 1007.59 1007.76 1008.00 1008.28 1008.59 1008.91 1009.21 1009.48 1009.71 1009.89 1010.01 1010.10 1010.15 1010.19 1010.23 1010.29 1010.38 1010.51 1010.68 1010.88 1011.11 1011.34 1011.55 1011.74
1017.01 1016.72 1016.34 1015.86 1015.29 1014.63 1013.90 1013.11 1012.30 1011.49 1010.70 1009.95 1009.27 1008.66 1008.15 1007.73 1007.42 1007.21 1007.11 1007.11 1007.20 1007.39 1007.64 1007.94 1008.29 1008.64 1008.98 1009.30 1009.57 1009.79 1009.95 1010.07 1010.14 1010.20 1010.24 1010.29 1010.37 1010.48 1010.63 1010.81 1011.02 1011.24 1011.46 1011.66
1016.75 1016.46 1016.09 1015.61 1015.04 1014.37 1013.63 1012.84 1012.02 1011.20 1010.40 1009.64 1008.95 1008.33 1007.80 1007.37 1007.04 1006.82 1006.71 1006.70 1006.81 1007.00 1007.27 1007.60 1007.97 1008.36 1008.74 1009.10 1009.42 1009.69 1009.89 1010.05 1010.15 1010.22 1010.27 1010.33 1010.40 1010.49 1010.62 1010.78 1010.97 1011.18 1011.39 1011.59
1016.38 1016.11 1015.73 1015.26 1014.68 1014.01 1013.28 1012.49 1011.67 1010.86 1010.06 1009.30 1008.60 1007.98 1007.44 1007.00 1006.67 1006.45 1006.33 1006.33 1006.44 1006.64 1006.93 1007.29 1007.69 1008.11 1008.53 1008.93 1009.30 1009.61 1009.86 1010.05 1010.18 1010.28 1010.35 1010.41 1010.48 1010.57 1010.68 1010.82 1010.99 1011.18 1011.39 1011.59
1015.92 1015.64 1015.27 1014.80 1014.23 1013.57 1012.85 1012.07 1011.28 1010.48 1009.69 1008.95 1008.26 1007.65 1007.12 1006.68 1006.35 1006.13 1006.02 1006.03 1006.15 1006.37 1006.67 1007.05 1007.48 1007.93 1008.38 1008.82 1009.22 1009.57 1009.86 1010.09 1010.26 1010.38 1010.47 1010.55 1010.62 1010.71 1010.81 1010.94 1011.10 1011.28 1011.48 1011.67
1015.38 1015.11 1014.74 1014.27 1013.71 1013.08 1012.38 1011.63 1010.86 1010.09 1009.34 1008.62 1007.96 1007.36 1006.85 1006.43 1006.11 1005.90 1005.81 1005.82 1005.96 1006.19 1006.51 1006.91 1007.35 1007.83 1008.31 1008.77 1009.20 1009.58 1009.89 1010.15 1010.34 1010.49 1010.61 1010.70 1010.79 1010.89 1011.00 1011.13 1011.29 1011.47 1011.66 1011.86
1014.81 1014.54 1014.18 1013.73 1013.19 1012.58 1011.91 1011.20 1010.48 1009.74 1009.03 1008.35 1007.71 1007.14 1006.65 1006.25 1005.95 1005.76 1005.68 1005.71 1005.86 1006.10 1006.44 1006.85 1007.31 1007.80 1008.29 1008.77 1009.21 1009.60 1009.93 1010.21 1010.42 1010.59 1010.73 1010.84 1010.95 1011.07 1011.20 1011.35 1011.53 1011.72 1011.93 1012.15
1014.24 1013.97 1013.63 1013.19 1012.68 1012.11 1011.48 1010.82 1010.14 1009.45 1008.78 1008.13 1007.53 1006.99 1006.52 1006.14 1005.86 1005.68 1005.62 1005.67 1005.83 1006.09 1006.43 1006.85 1007.32 1007.81 1008.31 1008.78 1009.23 1009.62 1009.95 1010.23 1010.46 1010.65 1010.80 1010.94 1011.08 1011.22 1011.38 1011.57 1011.78 1012.01 1012.25 1012.49
1013.69 1013.43 1013.10 1012.69 1012.22 1011.68 1011.10 1010.48 1009.85 1009.21 1008.58 1007.97 1007.40 1006.89 1006.44 1006.08 1005.82 1005.65 1005.60 1005.66 1005.83 1006.10 1006.45 1006.87 1007.34 1007.83 1008.32 1008.79 1009.22 1009.60 1009.93 1010.21 1010.44 1010.63 1010.80 1010.96 1011.13 1011.31 1011.52 1011.75 1012.01 1012.29 1012.58 1012.86
1013.14 1012.90 1012.59 1012.21 1011.77 1011.29 1010.76 1010.19 1009.61 1009.02 1008.43 1007.85 1007.32 1006.82 1006.40 1006.05 1005.79 1005.64 1005.59 1005.66 1005.84 1006.11 1006.46 1006.88 1007.34 1007.82 1008.30 1008.75 1009.17 1009.53 1009.85 1010.12 1010.35 1010.55 1010.73 1010.91 1011.11 1011.34 1011.59 1011.88 1012.19 1012.53 1012.88 1013.22
Thickness
5630 5636 5642 5645 5650 5656 5657 5659 5656 5666 5672 5682 5685 5688 5697 5706 5714 5719 5724 5728 5731 5732 5732 5730 5729 5728 5724 5720 5716 5710 5705 5700 5697 5695 5690 5686 5682 5680 5677 5675 5674 5673 5670 5668
5624 5634 5638 5641 5651 5657 5657 5659 5659 5662 5667 5675 5676 5684 5692 5702 5708 5711 5716 5721 5725 5727 5727 5725 5724 5720 5716 5712 5710 5706 5701 5696 5693 5689 5685 5680 5677 5675 5672 5669 5667 5667 5665 5664
5613 5628 5634 5636 5641 5646 5646 5646 5648 5645 5649 5660 5668 5675 5685 5693 5699 5703 5708 5713 5716 5720 5721 5721 5719 5715 5710 5707 5703 5699 5695 5690 5686 5683 5678 5674 5671 5668 5665 5662 5661 5660 5660 5659
5608 5617 5615 5625 5637 5639 5640 5638 5639 5641 5646 5652 5660 5676 5684 5684 5688 5695 5700 5704 5707 5710 5710 5710 5710 5707 5703 5700 5695 5692 5687 5683 5679 5675 5672 5669 5666 5663 5659 5659 5656 5654 5654 5653
5602 5608 5620 5618 5616 5617 5627 5631 5632 5637 5644 5653 5665 5689 5689 5683 5681 5684 5690 5693 5695 5699 5700 5701 5699 5697 5694 5690 5685 5680 5676 5673 5671 5668 5664 5662 5659 5657 5655 5653 5650 5648 5648 5646
5586 5590 5597 5581 5596 5620 5631 5624 5625 5631 5637 5645 5655 5664 5670 5675 5676 5679 5682 5685 5687 5691 5692 5690 5689 5688 5684 5679 5675 5670 5667 5665 5663 5660 5657 5655 5653 5651 5649 5647 5644 5642 5641 5640
5569 5571 5577 5565 5583 5612 5604 5594 5609 5623 5630 5637 5640 5645 5658 5670 5673 5674 5675 5677 5681 5682 5680 5680 5680 5679 5674 5670 5665 5662 5660 5658 5655 5652 5650 5649 5646 5644 5642 5639 5637 5636 5634 5633
5558 5557 5555 5560 5570 5574 5578 5592 5604 5617 5627 5634 5642 5652 5661 5667 5670 5671 5671 5672 5673 5673 5671 5671 5672 5670 5665 5659 5657 5655 5652 5650 5647 5646 5644 5642 5638 5636 5633 5631 5628 5626 5625 5624
5552 5551 5553 5558 5563 5572 5581 5591 5602 5614 5626 5634 5642 5652 5660 5667 5670 5670 5670 5669 5668 5667 5665 5664 5664 5663 5658 5653 5651 5649 5646 5643 5641 5639 5637 5634 5631 5627 5623 5621 5618 5617 5616 5615
5555 5559 5561 5565 5570 5577 5585 5592 5603 5615 5626 5635 5642 5651 5660 5666 5670 5670 5668 5667 5665 5663 5662 5659 5658 5656 5652 5649 5646 5645 5641 5639 5636 5634 5631 5626 5622 5618 5614 5611 5608 5606 5606 5606
5549 5558 5563 5568 5572 5580 5588 5597 5607 5618 5627 5636 5644 5652 5660 5666 5670 5671 5668 5665 5663 5661 5659 5657 5655 5652 5649 5645 5643 5641 5638 5635 5632 5627 5623 5618 5613 5608 5607 5603 5599 5596 5596 5598
5541 5551 5555 5565 5574 5583 5590 5599 5610 5620 5631 5641 5647 5653 5661 5666 5671 5671 5668 5665 5661 5659 5656 5655 5652 5649 5646 5642 5639 5638 5635 5631 5628 5624 5619 5615 5609 5603 5595 5594 5589 5586 5586 5589
5546 5552 5559 5569 5578 5586 5593 5603 5613 5623 5633 5642 5651 5657 5662 5666 5670 5670 5668 5664 5661 5658 5655 5653 5649 5646 5643 5639 5636 5633 5629 5626 5623 5620 5617 5612 5609 5606 5598 5590 5585 5582 5582 5583
5549 5554 5563 5572 5579 5589 5598 5608 5618 5628 5638 5646 5653 5659 5663 5667 5670 5669 5668 5666 5662 5658 5654 5651 5646 5643 5640 5636 5633 5630 5627 5621 5619 5617 5614 5612 5609 5605 5601 5597 5591 5585 5581 5581
5553 5557 5565 5575 5584 5593 5601 5611 5620 5630 5639 5648 5655 5660 5664 5667 5669 5670 5670 5667 5662 5657 5653 5650 5645 5642 5638 5634 5631 5627 5624 5621 5618 5615 5613 5611 5607 5603 5600 5595 5591 5587 5584 5582
5559 5564 5571 5578 5587 5595 5604 5612 5620 5630 5639 5646 5654 5660 5665 5668 5671 5672 5671 5667 5662 5658 5655 5650 5646 5643 5637 5633 5629 5625 5622 5615 5613 5614 5613 5610 5607 5604 5599 5595 5592 5589 5586 5584
5560 5565 5572 5579 5588 5596 5604 5611 5619 5628 5638 5646 5653 5659 5665 5670 5673 5673 5671 5669 5666 5663 5659 5653 5649 5644 5638 5633 5629 5626 5623 5617 5610 5612 5612 5610 5607 5604 5599 5595 5593 5590 5586 5583
5562 5565 5571 5577 5585 5594 5604 5613 5621 5629 5637 5646 5653 5660 5666 5670 5673 5675 5674 5672 5667 5663 5661 5657 5652 5645 5639 5634 5630 5628 5624 5621 5617 5614 5610 5608 5606 5604 5600 5597 5593 5589 5585 5583
5563 5566 5571 5577 5584 5593 5602 5612 5620 5629 5638 5646 5654 5661 5667 5672 5676 5678 5678 5674 5669 5666 5665 5661 5653 5648 5642 5636 5631 5628 5626 5623 5619 5615 5612 5606 5607 5605 5602 5598 5595 5591 5588 5586
5564 5567 5571 5576 5584 5591 5600 5611 5620 5629 5638 5646 5653 5662 5669 5676 5679 5680 5679 5676 5675 5674 5671 5664 5656 5652 5646 5639 5633 5632 5629 5626 5622 5618 5615 5612 5610 5607 5604 5600 5598 5595 5592 5590
5564 5566 5570 5575 5582 5590 5599 5609 5619 5627 5637 5645 5652 5660 5668 5676 5680 5682 5680 5679 5679 5675 5671 5663 5661 5655 5650 5642 5635 5635 5632 5629 5625 5622 5618 5616 5613 5611 5608 5604 5601 5598 5596 5593
5564 5566 5569 5574 5581 5589 5598 5607 5617 5625 5634 5643 5651 5659 5667 5675 5681 5683 5684 5683 5683 5674 5671 5667 5664 5658 5652 5645 5642 5639 5635 5632 5629 5625 5622 5619 5617 5615 5612 5609 5605 5602 5599 5597
5565 5566 5569 5573 5579 5586 5595 5605 5614 5623 5633 5641 5650 5658 5665 5672 5678 5682 5685 5686 5683 5676 5675 5671 5665 5657 5651 5648 5646 5642 5638 5635 5632 5629 5626 5623 5621 5618 5616 5612 5609 5606 5602 5599
5566 5566 5567 5572 5577 5584 5592 5601 5610 5621 5631 5641 5649 5657 5664 5671 5679 5685 5687 5684 5682 5676 5676 5670 5662 5657 5652 5652 5648 5645 5642 5639 5635 5632 5629 5627 5624 5621 5618 5614 5610 5607 5603 5600
5566 5566 5567 5569 5574 5581 5588 5597 5607 5618 5629 5639 5648 5656 5663 5669 5675 5682 5684 5684 5679 5676 5673 5667 5663 5658 5656 5654 5650 5647 5644 5641 5638 5635 5632 5629 5626 5623 5620 5616 5612 5608 5605 5601
5564 5564 5564 5567 5571 5576 5584 5592 5602 5613 5624 5635 5645 5653 5660 5668 5673 5678 5680 5681 5679 5675 5673 5668 5663 5658 5659 5655 5652 5649 5646 5642 5639 5636 5634 5631 5628 5624 5621 5617 5613 5610 5606 5602
5563 5563 5564 5566 5571 5575 5580 5587 5596 5607 5618 5628 5637 5648 5656 5663 5669 5674 5676 5677 5675 5674 5673 5669 5665 5661 5658 5654 5652 5649 5647 5644 5641 5638 5636 5633 5629 5626 5622 5618 5615 5611 5606 5602